FW3585 Weather Reports


Display with metric or nautical units.
time (UTC)temp
F
wind
direction
speed
MPH
gust
MPH
rain 1hr
in
rain 24hr
in
rain mn
in
humidity
%
barometer
mb
20260510233051 79 234 2.0 4.0 0.00 0.00 0.00 44 1013.6
20260510231553 80 229 2.0 5.0 0.00 0.00 0.00 43 1013.3
20260510230047 81 229 2.0 6.0 0.00 0.00 0.00 43 1013.1
20260510224552 81 275 3.0 11.0 0.00 0.00 0.00 42 1013.0
20260510223105 81 202 5.0 10.0 0.00 0.00 0.00 40 1013.0
20260510221545 81 242 4.0 10.0 0.00 0.00 0.00 40 1013.0
20260510220045 81 233 4.0 9.0 0.00 0.00 0.00 40 1013.0
20260510214544 82 254 5.0 12.0 0.00 0.00 0.00 39 1013.0
20260510213058 81 237 1.0 12.0 0.00 0.00 0.00 41 1013.0
20260510211543 80 188 3.0 12.0 0.00 0.00 0.00 40 1013.0
20260510210050 81 209 7.0 14.0 0.00 0.00 0.00 39 1013.1
20260510204552 81 192 4.0 10.0 0.00 0.00 0.00 41 1013.2
20260510203041 81 183 1.0 8.0 0.00 0.00 0.00 41 1013.1
20260510201542 81 192 5.0 12.0 0.00 0.00 0.00 41 1013.2
20260510200041 81 260 6.0 15.0 0.00 0.00 0.00 40 1013.5
20260510194542 81 229 9.0 18.0 0.00 0.00 0.00 40 1013.6
20260510193039 81 224 3.0 11.0 0.00 0.00 0.00 39 1013.8
20260510191544 82 297 2.0 8.0 0.00 0.00 0.00 41 1014.0
20260510190046 82 171 4.0 8.0 0.00 0.00 0.00 41 1014.0
20260510184541 81 323 2.0 11.0 0.00 0.00 0.00 40 1014.1
20260510183036 81 337 4.0 9.0 0.00 0.00 0.00 38 1014.1
20260510181601 81 164 7.0 12.0 0.00 0.00 0.00 37 1014.1
20260510180039 80 275 3.0 13.0 0.00 0.00 0.00 38 1014.4
20260510174549 79 290 2.0 12.0 0.00 0.00 0.00 41 1014.5
20260510173030 78 261 4.0 15.0 0.00 0.00 0.00 44 1014.5
20260510171529 79 237 2.0 12.0 0.00 0.00 0.00 41 1014.6
20260510170027 79 271 6.0 12.0 0.00 0.00 0.00 43 1014.7
20260510164527 78 209 1.0 10.0 0.00 0.00 0.00 41 1014.6
20260510163022 77 220 3.0 6.0 0.00 0.00 0.00 45 1014.8
20260510161519 77 331 3.0 13.0 0.00 0.00 0.00 46 1015.1
20260510160021 77 281 2.0 7.0 0.00 0.00 0.00 51 1015.2
20260510154513 76 267 3.0 7.0 0.00 0.00 0.00 50 1015.1
20260510153009 75 262 2.0 11.0 0.00 0.00 0.00 53 1015.3
20260510151505 74 290 3.0 9.0 0.00 0.00 0.00 55 1015.4
20260510144556 74 315 2.0 8.0 0.00 0.00 0.00 56 1015.3
20260510143059 73 332 3.0 8.0 0.00 0.00 0.00 56 1015.4
20260510141552 72 11 0.0 8.0 0.00 0.00 0.00 60 1015.4
20260510140043 71 257 2.0 5.0 0.00 0.00 0.00 59 1015.6
20260510134543 70 294 1.0 5.0 0.00 0.00 0.00 62 1015.5
20260510133035 69 329 0.0 5.0 0.00 0.00 0.00 64 1015.5
20260510131532 67 329 1.0 5.0 0.00 0.00 0.00 66 1015.4
20260510130025 65 302 1.0 4.0 0.00 0.00 0.00 68 1015.3
20260510124521 64 344 0.0 4.0 0.00 0.00 0.00 73 1015.3
20260510123017 62 351 2.0 4.0 0.00 0.00 0.00 74 1015.3
20260510121513 60 360 2.0 4.0 0.00 0.00 0.00 75 1014.8
20260510120009 58 5 1.0 4.0 0.00 0.00 0.00 77 1014.6
20260510114508 57 351 2.0 5.0 0.00 0.00 0.00 79 1014.6
20260510113104 56 15 1.0 4.0 0.00 0.00 0.00 81 1014.2
20260510111556 54 35 1.0 3.0 0.00 0.00 0.00 83 1014.0
20260510110052 53 35 1.0 4.0 0.00 0.00 0.00 85 1014.0
20260510104546 53 36 0.0 2.0 0.00 0.00 0.00 85 1013.7
20260510103049 53 36 0.0 2.0 0.00 0.00 0.00 85 1013.7
20260510101542 53 36 0.0 1.0 0.00 0.00 0.00 85 1013.5
20260510100101 53 36 0.0 2.0 0.00 0.00 0.00 85 1013.4
20260510094538 54 36 0.0 2.0 0.00 0.00 0.00 85 1013.2
20260510093045 55 36 0.0 1.0 0.00 0.00 0.00 84 1013.0
20260510091539 55 38 1.0 4.0 0.00 0.00 0.00 85 1013.0
20260510090038 54 94 1.0 3.0 0.00 0.00 0.00 88 1013.0
20260510084535 54 104 0.0 2.0 0.00 0.00 0.00 89 1012.9
20260510083033 55 104 1.0 3.0 0.00 0.00 0.00 88 1012.9
20260510081529 55 155 1.0 2.0 0.00 0.00 0.00 87 1012.6
20260510080027 56 155 0.0 2.0 0.00 0.00 0.00 87 1012.4
20260510074526 56 155 0.0 2.0 0.00 0.00 0.00 88 1012.2
20260510073024 56 155 0.0 2.0 0.00 0.00 0.00 87 1012.2
20260510071534 56 155 0.0 2.0 0.00 0.00 0.00 87 1012.1
20260510070020 57 157 0.0 1.0 0.00 0.00 0.00 87 1012.0
20260510064517 58 157 0.0 2.0 0.00 0.00 0.00 85 1012.2
20260510063020 59 158 0.0 2.0 0.00 0.00 0.00 85 1012.2
20260510061526 59 158 0.0 2.0 0.00 0.00 0.00 84 1012.4
20260510060012 60 158 0.0 3.0 0.00 0.00 0.00 83 1012.4
20260510054508 60 158 3.0 5.0 0.00 0.00 0.00 80 1012.4
20260510053007 61 184 0.0 3.0 0.00 0.00 0.00 79 1012.5
20260510051507 61 184 1.0 4.0 0.00 0.00 0.00 79 1012.3
20260510050005 61 215 2.0 4.0 0.00 0.00 0.00 78 1012.4
20260510044504 60 202 0.0 2.0 0.00 0.00 0.00 78 1012.4
20260510043003 61 195 0.0 2.0 0.00 0.00 0.00 79 1012.3
20260510041602 61 195 1.0 3.0 0.00 0.00 0.00 79 1012.3
20260510040103 61 196 1.0 3.0 0.00 0.00 0.00 78 1012.3
20260510034609 62 196 2.0 3.0 0.00 0.00 0.00 77 1012.1
20260510033114 63 201 0.0 3.0 0.00 0.00 0.00 76 1012.0
20260510031559 64 200 0.0 2.0 0.00 0.00 0.00 75 1011.8
20260510030056 65 199 0.0 3.0 0.00 0.00 0.00 74 1011.9
20260510024559 65 197 0.0 3.0 0.00 0.00 0.00 74 1011.9
20260510023056 66 253 0.0 6.0 0.00 0.00 0.00 73 1011.7
20260510021555 66 222 3.0 5.0 0.00 0.00 0.00 72 1011.6
20260510020055 67 192 3.0 6.0 0.00 0.00 0.00 71 1011.2
20260510014554 67 221 4.0 7.0 0.00 0.00 0.00 71 1010.9
20260510013055 67 202 2.0 6.0 0.00 0.00 0.00 69 1010.6
20260510011556 68 192 0.0 2.0 0.00 0.00 0.00 65 1010.2
20260510010053 69 190 0.0 2.0 0.00 0.00 0.00 64 1010.0
20260510004552 69 190 0.0 3.0 0.00 0.00 0.00 62 1009.9
20260510003151 70 181 1.0 4.0 0.00 0.00 0.00 60 1009.7
20260510001550 71 181 1.0 4.0 0.00 0.00 0.00 58 1009.6
20260510000053 72 199 0.0 5.0 0.00 0.00 0.00 56 1009.3
20260509234601 73 214 1.0 4.0 0.00 0.00 0.00 55 1009.3